TimeEDT,TemperatureF,Dew PointF,Humidity,Sea Level PressureIn,VisibilityMPH,Wind Direction,Wind SpeedMPH,Gust SpeedMPH,PrecipitationIn,Events,Conditions,WindDirDegrees,DateUTC
12:56 AM,80.6,73.4,79,30.10,10.0,SSW,12.7,-,N/A,,Mostly Cloudy,200,2013-07-08 04:56:00
1:56 AM,80.6,73.4,79,30.09,10.0,SSW,11.5,-,N/A,,Partly Cloudy,200,2013-07-08 05:56:00
2:56 AM,78.8,73.4,83,30.10,10.0,SW,15.0,-,N/A,,Scattered Clouds,230,2013-07-08 06:56:00
3:56 AM,78.8,73.4,83,30.10,10.0,SW,12.7,-,N/A,,Overcast,220,2013-07-08 07:56:00
4:56 AM,78.8,73.4,83,30.11,10.0,SW,10.4,-,N/A,,Overcast,230,2013-07-08 08:56:00
5:56 AM,77.0,73.4,89,30.12,10.0,SW,8.1,-,N/A,,Partly Cloudy,220,2013-07-08 09:56:00
6:56 AM,77.0,73.4,89,30.14,10.0,SW,10.4,-,N/A,,Partly Cloudy,230,2013-07-08 10:56:00
7:56 AM,78.8,73.4,83,30.14,10.0,WSW,11.5,-,N/A,,Partly Cloudy,240,2013-07-08 11:56:00
8:56 AM,80.6,73.4,79,30.15,10.0,West,11.5,-,N/A,,Partly Cloudy,260,2013-07-08 12:56:00
9:19 AM,78.8,71.6,78,30.16,10.0,WSW,11.5,-,N/A,,Mostly Cloudy,240,2013-07-08 13:19:00
9:56 AM,80.6,73.4,79,30.12,10.0,South,8.1,-,N/A,,Scattered Clouds,180,2013-07-08 13:56:00
10:16 AM,80.6,73.4,79,30.15,10.0,SW,15.0,-,N/A,,Mostly Cloudy,220,2013-07-08 14:16:00
10:20 AM,80.6,73.4,79,30.15,10.0,WSW,13.8,-,N/A,Rain,Light Rain,240,2013-07-08 14:20:00
10:28 AM,78.8,73.4,83,30.15,10.0,WSW,13.8,-,N/A,Rain,Light Rain,250,2013-07-08 14:28:00
10:48 AM,77.0,73.4,89,30.15,9.0,WSW,12.7,-,N/A,Rain,Light Rain,250,2013-07-08 14:48:00
10:55 AM,75.2,73.4,94,30.15,10.0,WSW,10.4,-,N/A,Rain,Light Rain,240,2013-07-08 14:55:00
10:56 AM,75.2,73.4,94,30.15,10.0,WSW,11.5,-,N/A,Rain,Light Rain,250,2013-07-08 14:56:00
11:36 AM,75.2,71.6,89,30.16,10.0,SW,12.7,-,N/A,,Scattered Clouds,230,2013-07-08 15:36:00
11:56 AM,77.0,71.6,83,30.15,10.0,WSW,9.2,-,N/A,,Partly Cloudy,240,2013-07-08 15:56:00
12:56 PM,80.6,73.4,79,30.14,10.0,WSW,13.8,-,N/A,,Mostly Cloudy,250,2013-07-08 16:56:00
1:58 PM,82.9,74.1,75,30.12,10.0,WSW,12.7,19.6,N/A,,Mostly Cloudy,240,2013-07-08 17:58:00
2:13 PM,84.2,73.4,70,30.12,10.0,SW,10.4,-,N/A,,Mostly Cloudy,230,2013-07-08 18:13:00
2:18 PM,84.2,73.4,70,30.12,10.0,SW,15.0,-,N/A,,Mostly Cloudy,230,2013-07-08 18:18:00
2:23 PM,82.4,73.4,74,30.12,10.0,SW,12.7,19.6,N/A,,Mostly Cloudy,230,2013-07-08 18:23:00
2:33 PM,82.4,73.4,74,30.12,10.0,SW,15.0,-,N/A,,Overcast,230,2013-07-08 18:33:00
2:38 PM,82.4,73.4,74,30.12,10.0,SW,12.7,-,N/A,,Mostly Cloudy,230,2013-07-08 18:38:00
2:48 PM,82.4,73.4,74,30.12,10.0,SW,10.4,-,N/A,,Overcast,230,2013-07-08 18:48:00
2:58 PM,84.6,73.4,69,30.11,10.0,WSW,13.8,-,N/A,,Mostly Cloudy,240,2013-07-08 18:58:00
3:58 PM,84.4,73.2,69,30.11,10.0,SW,11.5,-,N/A,,Partly Cloudy,230,2013-07-08 19:58:00
4:58 PM,84.0,73.0,69,30.09,10.0,SW,9.2,-,N/A,,Scattered Clouds,220,2013-07-08 20:58:00
5:58 PM,83.5,72.5,69,30.09,10.0,SW,10.4,-,N/A,,Mostly Cloudy,230,2013-07-08 21:58:00
6:58 PM,84.2,73.8,71,30.08,10.0,WSW,8.1,-,N/A,,Scattered Clouds,250,2013-07-08 22:58:00
7:58 PM,82.8,72.9,72,30.10,10.0,SW,9.2,-,N/A,,Scattered Clouds,230,2013-07-08 23:58:00
8:58 PM,80.8,74.7,82,30.11,10.0,South,8.1,-,N/A,,Partly Cloudy,190,2013-07-09 00:58:00
9:58 PM,79.7,74.1,83,30.14,10.0,SSW,8.1,-,N/A,,Clear,210,2013-07-09 01:58:00
10:58 PM,79.0,74.5,86,30.13,10.0,SW,6.9,-,N/A,,Clear,220,2013-07-09 02:58:00
11:58 PM,78.1,75.0,90,30.13,10.0,SSW,6.9,-,N/A,,Clear,200,2013-07-09 03:58:00